CZ-6A DEB, 54501

Orbit data source: Space-Track

CZ-6A DEB, 54501 is space debris in SSO originally from a launch on Fri, 11 Nov 2022 UTC launched from the Taiyaun Space Center, China (TSC). Debris objects in space refer to the collection of defunct objects orbiting the Earth. Examples of debris include non-operational satellites, rocket bodies, and fragments generated from explosions, collisions, or faulty payload assembly.

Loading next visibility...
Identifier
54501, 2022-151JD
Orbit
SSO
Country
Flag of CNCN / PRC
Related business
Manufacturer
SAST
Mission
Spacecraft
Bus & Motor
Unknown
Mass
Unknown
Launch date (UTC)
2022-11-11 (4 years ago)
Launch vehicle
Unknown
Launch site
Taiyaun Space Center, China (TSC)
Object type
Payload
Rocket body
Debris
Shape & HBR
Unknown shape, 0.1 m
Radar Cross Section
Medium (>0.1 m² and <1 m²)

Expand to show TLE details & history
Last TLE update: 15 hours ago

TLE from 15 hours ago
0 CZ-6A DEB
1 54501U 22151JD  26262.97326338  .00001730  00000-0  50512-3 0  9992
2 54501  98.6616 271.4273 0194694 202.7428 156.5044 14.34970325200361
Epoch: 2026-09-19T23:21Z
TLE epoch observation values (Epoch: 2026-09-19T23:21:29.956Z)
Latitude
-0.00009°
Longitude
-77.82162°
Altitude
906.271 km
Speed
7.332 km/s
True Right ascension
18h 05m 42s
True Declination
0° 00' 00"
Sunlit
Object was in daylight at epoch
Visualization orbit readout
Latitude
Unknown
Longitude
Unknown
Altitude
Unknown
Speed
Unknown
Apparent Right ascension
Unknown
Apparent Declination
Unknown
Sunlit
N/A
Visualization observer readout
Local Sidereal Time
06:57:37
Azimuth
Unknown
Elevation
Unknown
Doppler factor
Unknown
Orbital elements
Apogee altitude
911.514 km
Perigee altitude
633.085 km
Semi-major axis
7,150.437 km
Eccentricity
0.01947
Inclination
98.6616°
RAAN
271.4273°
Arg. of periapsis
202.7428°
True anomaly
157.3744°
Mean anomaly
156.5044°
Eccentric anomaly
156.94132°
Mean motion
3.58959 °/min
Orbital period
100.29 mins
BSTAR
0.00050512
Loading maneuver chart data...
Computing Atmospheric mass density...

Documentation

Showing up to 5 results
|